Probability
0 0 0 0 0 0 0 0 0 0 0 0 0 0 0 0 0 0 0 0 0 0 0 0 0 0 0 0 0 0 0 0 0 0 0 0 0 0
0 0 0 0 0 0 0 0 0 0 0 0 0 0 0 0 0 0 0 0 0 0 0 0 0 0 0 0 0 0 0 0 0 0 0 0 0 0
0 0 0 0 0 0 0 0 0 0 0 0 0 0 0 0 0 0 0 0 0 0 0 0 0 0 0 0 0 0 0 0 0 0 0 0 0 0
0 0 0 0 0 0 0 0 0 0 0 0 0 0 0 0 0 0 0 0 0 0 0 0 0 0 0 0 0 0 0 0 0 0 0 0 0 0
0 0 0 0 0 0 0 0 0 0 0 0 0 0 0 0 0 0 0 0 0 0 0 0 0 0 0 0 0 0 0 0 0 0 0 0 0 0
0 0 0 0 0 0 0 0 0 0 0 0 0 0 0 0 0 0 0 0 0 0 0 0 0 0 0 0 0 0 0 0 0 0 0 0 0 0
0 0 0 0 0 0 0 0 0 0 0 0 0 0 0 0 0 0 0 0 0 0 0 0 0 0 0 0 0 0 0 0 0 0 0 0 0 0
0 0 0 0 0 0 0 0 0 0 0 0 0 0 0 0 0 0 0 0 0 0 0 0 0 0 0 0 0 0 0 0 0 0 0 0 0 0
0 0 0 0 0 0 0 0 0 0 0 0 0 0 0 0 0 0 0 0 0 0 0 0 0 0 0 0 0 0 0 0 0 0 0 0 0 0
0 0 1 1 0 0 0 0 0 0 0 0 0 0 0 0 0 0 0 0 0 0 0 0 0 0 0 0 0 0 0 0 0 0 0 0 0 0
0 0 1 1 0 0 0 0 0 0 0 0 0 0 0 0 0 0 0 0 0 0 0 0 0 0 0 0 0 0 0 0 0 0 0 0 0 0
0 0 1 1 0 0 0 0 0 0 0 0 0 0 0 0 0 0 0 0 0 0 0 0 0 0 0 0 0 0 0 0 0 0 0 0 0 0
0 0 0 0 0 0 0 0 0 0 0 0 0 0 0 0 0 0 0 0 0 0 0 0 0 0 0 0 0 0 0 0 0 0 0 0 0 0
0 0 0 0 0 0 0 0 0 0 0 0 0 0 0 0 0 0 0 0 0 0 0 0 0 0 0 0 0 0 0 0 0 0 0 0 0 0
0 0 0 0 0 0 0 0 0 0 0 0 0 0 0 0 0 0 0 0 0 0 0 0 0 0 0 0 0 0 0 0 0 0 0 0 0 0
0 0 0 0 0 0 0 0 0 0 0 0 0 0 0 0 0 0 0 0 0 0 0 0 0 0 0 0 0 0 0 0 0 0 0 0 0 0
0 0 0 0 0 0 0 0 0 0 0 0 0 0 0 0 0 0 0 0 0 0 0 0 0 0 0 0 0 0 0 0 0 0 1 0 0 0
0 0 0 0 0 0 0 0 0 0 0 0 0 0 0 0 0 0 0 0 0 0 0 0 0 0 0 0 0 0 0 0 0 0 0 0 0 0
0 0 0 0 0 0 0 0 0 0 0 0 0 0 0 0 0 0 0 0 0 0 0 0 0 0 0 0 0 0 0 0 0 0 0 0 0 0
0 0 0 0 0 0 0 0 0 0 0 0 0 0 0 0 0 0 0 0 0 0 0 0 0 0 0 0 0 0 0 0 0 0 0 0 0 0
0 0 0 0 0 0 0 0 0 0 0 0 0 0 0 0 0 0 0 0 0 0 0 0 0 0 0 0 0 0 0 0 0 0 0 0 0 0
0 0 0 0 0 0 0 0 0 0 0 0 0 0 0 0 0 0 0 0 0 0 0 0 0 0 0 0 0 0 0 0 0 0 0 0 0 0
0 0 0 0 0 0 0 0 0 0 0 0 0 0 0 0 0 0 0 0 0 0 0 0 0 0 0 0 0 0 0 0 0 0 0 0 0 0
Wind_Speed
5 5 3 3 3 3 3 3 4 3 3 3 2 2 3 3 5 4 5 7 8 9 9 9 9 9 9 9 9 9 9 9 9 9 9 9 10 11
4 5 4 3 3 3 3 3 3 4 3 3 3 2 2 3 4 5 5 6 8 8 9 9 9 9 9 9 10 10 10 10 10 10 10 10 10 11
5 6 5 4 4 3 3 3 3 3 4 2 2 2 2 2 2 2 3 4 4 8 9 9 9 9 9 9 9 10 10 10 10 11 11 11 11 12
7 6 6 5 5 4 3 4 4 4 4 3 2 2 2 2 2 2 3 3 4 6 8 8 8 9 9 9 9 9 9 10 10 11 11 11 11 12
8 8 7 7 6 4 5 4 3 3 3 3 2 1 1 1 1 2 2 2 3 4 5 6 7 7 7 7 8 8 8 9 9 9 10 10 10 11
8 8 8 8 8 7 6 5 4 4 3 2 2 2 2 1 1 2 2 2 3 3 3 3 4 5 5 6 7 7 7 7 7 8 8 8 9 10
7 7 8 9 10 8 6 6 6 4 3 3 2 2 2 2 3 2 3 2 3 2 2 2 2 3 4 5 6 6 6 6 6 7 7 8 8 9
7 7 7 8 9 10 10 9 9 7 6 4 4 4 4 4 3 3 3 2 3 2 2 3 2 4 4 4 5 6 6 6 6 7 7 7 8 9
7 6 5 6 7 6 7 9 9 10 9 7 6 7 6 5 4 4 4 4 4 2 2 4 3 4 4 4 6 7 7 7 7 7 7 8 8 9
7 7 7 6 6 7 6 6 6 7 8 7 7 7 6 5 5 4 4 3 3 2 3 4 3 4 4 4 6 8 7 7 8 8 8 9 9 9
6 7 7 7 8 9 7 6 5 5 6 8 8 7 6 6 5 3 3 3 4 3 3 4 3 3 4 4 4 6 7 8 9 9 9 9 9 9
4 5 7 7 7 8 7 6 7 6 4 3 4 4 4 4 6 6 5 4 4 3 3 3 3 2 4 3 3 3 4 6 8 8 9 9 9 6
4 4 4 7 7 8 8 6 7 5 3 3 3 2 2 2 3 4 5 5 5 5 3 3 3 2 3 4 3 3 4 4 4 5 7 8 9 7
4 3 3 5 6 5 5 4 4 3 2 2 2 2 3 3 2 3 4 5 5 5 3 4 3 3 4 5 5 4 4 4 4 5 6 7 8 9
3 5 5 5 4 3 2 3 3 2 2 2 3 3 2 2 2 1 2 2 3 4 4 4 5 4 4 5 5 5 5 5 5 5 6 6 7 7
3 3 4 4 3 2 1 1 1 2 2 2 2 2 1 1 1 1 2 1 2 3 3 3 4 5 5 6 6 7 6 5 5 5 7 8 7 7
4 3 2 2 2 1 1 1 1 1 1 1 1 1 1 1 1 1 1 1 2 3 3 2 3 4 6 6 6 7 7 7 7 7 7 9 9 8
5 3 2 2 2 1 1 0 1 0 0 1 1 1 1 2 2 1 1 2 3 3 4 3 3 3 3 4 7 7 6 7 7 7 7 8 10 9
4 2 2 2 1 1 1 0 0 0 0 1 1 1 1 2 2 2 2 2 3 4 4 3 3 3 5 7 5 5 6 7 8 8 7 8 10 10
2 2 1 1 1 1 1 0 0 1 0 0 0 1 1 1 1 2 2 3 4 4 4 4 3 4 5 6 6 6 7 7 7 8 8 8 9 10
3 2 2 1 1 1 1 1 1 1 1 1 1 1 1 2 2 3 3 4 4 4 4 5 4 5 5 4 6 7 6 7 8 8 8 8 9 8
3 3 3 3 2 2 2 2 1 1 2 1 2 2 2 1 2 3 3 3 3 4 5 4 4 4 3 5 7 8 9 8 7 10 12 10 7 6
4 4 4 4 4 3 3 3 3 2 2 2 2 2 2 2 2 3 3 3 3 4 4 5 4 4 4 5 7 8 10 10 8 7 7 7 10 14
Wind_Direction
188 184 182 186 183 183 170 165 160 184 239 252 251 244 229 225 225 218 226 232 234 237 241 246 249 252 254 256 256 257 259 260 260 260 261 264 265 267
181 182 187 185 181 181 181 182 173 173 211 235 238 251 246 236 216 217 230 239 242 243 247 250 253 256 257 259 258 258 258 258 258 258 258 260 261 263
186 189 195 182 182 184 174 173 178 172 200 241 241 252 242 245 227 222 234 237 246 247 248 250 254 257 259 260 260 260 260 260 260 261 261 261 261 262
194 190 195 186 188 187 180 187 188 187 190 218 233 238 243 246 240 239 239 236 241 249 247 248 250 254 259 260 261 261 261 262 263 262 262 263 264 265
193 192 194 183 191 190 190 193 192 187 184 197 227 227 251 258 251 252 252 256 253 250 242 241 247 256 262 263 263 263 263 264 264 264 264 265 266 267
196 196 194 192 195 192 193 195 187 180 177 190 217 230 241 243 227 238 255 246 261 267 259 258 259 264 263 262 262 264 265 265 265 266 268 269 269 269
201 202 204 203 202 195 195 193 185 185 184 194 210 216 226 216 222 215 236 257 260 247 260 262 262 267 266 263 262 261 262 261 262 266 270 273 274 274
204 207 211 208 209 208 207 197 187 187 193 194 205 216 228 223 219 212 217 235 262 218 229 258 244 262 264 260 258 259 260 261 265 268 271 274 275 274
204 203 208 208 200 203 210 210 209 210 201 194 209 222 225 218 204 216 218 223 239 236 214 262 245 257 262 262 258 256 258 260 265 270 274 276 277 278
201 201 204 207 202 198 202 208 216 223 220 215 220 227 226 213 203 213 220 229 248 245 210 253 257 260 273 270 264 259 262 266 271 275 278 280 279 279
209 207 206 212 213 201 197 210 226 241 238 223 225 231 230 219 194 183 195 219 254 245 200 231 253 268 271 268 263 258 265 270 273 276 280 282 282 282
209 214 211 212 213 201 201 206 226 239 230 219 222 240 239 231 204 204 209 223 246 256 204 214 244 261 277 259 265 272 273 272 274 277 281 283 285 285
205 209 211 206 213 211 207 211 224 226 219 218 224 231 231 228 224 219 218 220 228 241 216 201 234 234 252 279 279 271 272 279 283 283 281 281 280 274
199 202 193 182 189 197 203 215 217 209 209 207 220 240 250 255 253 243 234 233 238 247 238 205 227 233 248 267 276 278 279 281 280 282 290 291 284 273
182 172 166 161 163 171 180 186 188 186 189 211 232 247 255 270 275 272 263 252 257 261 257 235 239 247 244 257 270 277 287 287 276 280 290 291 290 290
168 146 140 135 140 135 132 161 169 169 181 214 240 260 278 286 283 276 275 278 276 279 268 253 247 245 254 258 263 272 274 278 285 291 295 291 285 277
146 121 110 112 126 135 134 136 140 149 172 212 237 254 271 279 285 279 265 264 259 279 293 296 277 261 253 257 265 267 275 277 281 292 294 293 289 285
126 121 131 139 147 150 153 131 86 124 224 220 234 258 269 273 279 277 268 265 271 280 287 296 310 312 297 265 238 265 277 284 292 293 288 288 290 292
115 122 134 142 140 134 136 147 249 278 236 223 250 271 276 279 281 283 279 279 281 284 286 289 287 284 291 295 284 236 268 290 294 293 289 285 287 292
93 103 111 115 117 121 111 78 29 28 36 343 316 306 293 290 293 291 290 288 287 288 290 289 283 278 275 287 291 288 265 275 289 292 294 292 285 283
92 85 79 81 85 90 83 68 57 47 31 5 337 318 304 294 292 293 293 292 288 287 291 294 295 291 285 278 280 286 289 271 266 279 292 295 296 297
72 73 66 63 58 55 56 53 46 31 13 354 336 329 320 308 298 296 293 292 290 290 293 298 306 303 288 283 290 295 298 302 289 270 264 261 277 290
64 62 61 59 54 49 45 41 39 28 15 1 351 342 337 327 315 304 300 296 296 298 302 304 307 302 293 288 293 297 302 308 310 310 300 281 261 262